Terminal Aerodrome Forecast
Issued by NWS Melbourne, FL

Home | Current Version | Previous Version | Text Only | Print | Product List | Glossary On
Versions: 1 2 3 4 5 6 7 8 9 10 11 12
000
FTUS42 KMLB 221124
TAFVRB
TAF
KVRB 221124Z 2212/2312 30003KT P6SM VCSH BKN025 BKN040 BKN110
     FM221600 06011KT P6SM VCSH SCT030 BKN060
     FM230000 06007KT P6SM VCSH BKN035 BKN060=

USA.gov is the U.S. government's official web portal to all federal, state and local government web resources and services.